Regional Weather Roundup
Issued by NWS Newport/Morehead, NC

Current Version | Previous Version | Graphics & Text | Print | Product List | Glossary Off
Versions: 1 2 3 4 5 6 7 8 9 10 11 12 13 14 15 16 17 18 19 20 21 22 23 24 25 26 27 28 29 30 31 32 33 34 35 36 37 38 39 40 41 42 43 44 45 46 47 48 49 50

000
ASUS42 KMHX 310310
RWRMHX
WEATHER ROUNDUP FOR EASTERN NORTH CAROLINA
NATIONAL WEATHER SERVICE NEWPORT/MOREHEAD CITY NC
1100 PM EDT SAT AUG 30 2014

NOTE: "FAIR" INDICATES FEW OR NO CLOUDS BELOW 12,000 FEET
WITH NO SIGNIFICANT WEATHER AND/OR OBSTRUCTIONS TO VISIBILITY

NCZ015>017-031-032-045>047-102-103-310400-
NORTH COAST

CITY           SKY/WX    TMP DP  RH WIND       PRES   REMARKS
EDENTON        CLEAR     78  74  88 S7        30.18R
ELIZABETH CITY CLEAR     77  74  90 S6        30.18R
KITTY HAWK     CLEAR     77  74  92 CALM      30.17F
MANTEO         CLEAR     79  74  86 S9        30.18F

$$

NCZ045>047-081-094-103-104-310400-
CENTRAL COAST

CITY           SKY/WX    TMP DP  RH WIND       PRES   REMARKS
FRISCO         NOT AVBL
SWANQUARTER      N/A     81 N/A N/A S9        30.15S

$$

NCZ095-097-098-100-101-310400-
SOUTHERN COAST

CITY           SKY/WX    TMP DP  RH WIND       PRES   REMARKS
BEAUFORT       CLEAR     80  73  79 S3        30.19R
CEDAR ISLAND     N/A     79 N/A N/A SE3       30.24R
JACKSONVILLE   CLEAR     75  73  93 SE5       30.18R
NEWPORT        NOT AVBL
PINEY ISLAND   CLEAR     79  75  87 CALM      30.18R
WILMINGTON     CLEAR     74  71  91 CALM      30.18R


$$

NCZ011>013-027>030-043-044-078>080-089-090>093-098-310400-
COASTAL PLAIN

CITY           SKY/WX    TMP DP  RH WIND       PRES   REMARKS
AHOSKIE        CLEAR     73  71  93 SE3       30.17S
CLINTON        CLEAR     75  73  94 CALM      30.18S
ELIZABETHTOWN  CLEAR     75  74  95 CALM      30.18R
GOLDSBORO      CLOUDY    78  77  97 SE5       30.16R
GREENVILLE     CLEAR     79  73  83 S7        30.19R
HAVELOCK       CLEAR     75  73  93 CALM      30.20R
KENANSVILLE    CLEAR     74  71  91 CALM      30.19R
KINSTON        CLEAR     77  72  84 S6        30.19R
NEW BERN       LGT RAIN  75  72  90 CALM      30.20R
RICHLANDS      CLEAR     72  70  94 CALM      30.19S
ROANOKE RAPIDS NOT AVBL
ROCKY MOUNT    CLOUDY    78  72  81 SE5       30.17R
WASHINGTON     CLEAR     77  73  85 S5        30.18S
WHITEVILLE     CLEAR     74  72  92 CALM      30.17S

$$

AMZ130-135-150-152-154-156-158-170-250-252-270-ANZ085-086-088-633-658-670-310400-
MARINE OBSERVATIONS

STATION/POSITION TIME  TEMP    WIND        PRES    WAVE   SWELL
                       AIR SEA DIR/SP/G            HT/PER HT/PER
                 (UTC) (F)     (DEG/KT/KT) (MB)    (FT/S) (FT/S)
CHESAPEAKE LIGHT 0200   76     140/ 15/ 15 1022.1
BUOY 44014       0300   78 78  160/  6/  8 1021.7    2/ 8   2/ 8
DUCK             0300   78 77  160/  9/  9 1021.1
2E DUCK          0300                        N/A     2/ 8
OREGON INLET     0300   78 79  130/  3/  4 1022.2
BUOY 44095       0300      77                N/A     2/ 8
20E OREGON INLET NOT AVBL
HATTERAS CG      0300   81 83  160/  8/ 10 1022.6
DIAMOND BUOY     0300   80     150/ 12/ 14 1022.0    3/ 8   3/ 8
CAPE LOOKOUT     0200   81     150/  7/  8 1021.8
BEAUFORT LAB     0300   81 82  170/  6/  9 1021.5
30 SE NEW RIVER  0300   82 83  170/ 10/ 12 1022.3    2/ 8   2/ 8
5 SE WRIGHTSVILL 0300   78 82  170/  8/ 10   N/A
BUOY 41002       0204   81 83  160/ 10/ 12 1022.5    3/10   3/10
BUOY 41004       0300   83 83  130/ 10/ 12 1020.5    3/ 8   2/ 8

$$


USA.gov is the U.S. government's official web portal to all federal, state and local government web resources and services.